Simultaneous Nadir Overpasses (SNOs) Predictions

Prediction of SNOs between GOES-17 and AQUA Satellite Orbit:

Table of predicted SNOs for the next 14.0 days since TLE Epoch: 9/9/2023
Index Date Time (GOES-17) GOES-17 Lat,Lon AQUA Lat,Lon Distance(km) Time Diff (sec)
1 09/09/2023 08:34:37 -0.01,-104.71 -0.84,-100.74 450.55 80
2 09/09/2023 20:55:25 0.01,-104.69 -0.20,-105.79 124.79 80
3 09/11/2023 20:43:35 0.01,-104.69 0.53,-102.24 277.54 80
4 09/12/2023 09:04:15 -0.00,-104.71 0.53,-107.25 288.95 80
5 09/14/2023 08:47:05 -0.00,-104.71 -0.23,-103.71 113.89 80
6 09/14/2023 21:07:52 -0.00,-104.69 -0.90,-108.74 461.67 80
7 09/16/2023 20:53:22 -0.00,-104.69 -0.08,-105.21 58.34 80
8 09/18/2023 20:41:30 -0.00,-104.69 0.64,-101.66 345.18 80
9 09/19/2023 09:02:10 -0.00,-104.72 0.39,-106.67 220.75 80
10 09/21/2023 08:44:57 -0.00,-104.72 -0.32,-103.11 182.36 80
11 09/21/2023 21:05:45 0.00,-104.69 -0.72,-108.15 393.62 80
